Other Surface Observations
Issued by NWS

Home | Current Version | Previous Version | Text Only | Print | Product List | Glossary On
Versions: 1 2 3 4 5 6 7 8 9 10 11 12 13 14 15 16 17 18 19 20 21 22 23 24 25 26 27 28 29 30 31 32 33 34 35 36 37 38 39 40 41 42 43 44 45 46 47 48 49 50
000
SXUS52 KTAE 020118
OSOTAE
OSOTAE
North Florida/South Alabama/Southwest Georgia Weather Roundup
National Weather Service Tallahassee Florida
800 PM EST SUN FEB 01 2015

Note: "fair" indicates few or no clouds below 12,000 feet with no
significant weather and/or obstructions to visibility.

!FLZ017-115-028-034-025-020200
...North Florida...

CITY           SKY/WX    TMP DP  RH WIND       PRES   REMARKS
TALLAHASSEE    LGT RAIN  61  55  81 SE8       30.00F
APALACHICOLA   LGT RAIN  66  61  84 S13       29.97F
PERRY          CLOUDY    65  52  61 S6        30.04S
CROSS CITY       N/A     59  50  72 CALM      30.04S
JACKSONVILLE   MOCLDY    62  55  77 S8        30.05F
$$

!FLZ112-006-005-002-011-020200
...Florida Panhandle...

CITY           SKY/WX    TMP DP  RH WIND       PRES   REMARKS
MARIANNA       CLOUDY    59  59 100 VRB3      29.96F
BONIFAY        CLOUDY    60  59  96 SE7       29.94F
PANAMA CITY NW CLOUDY    63  63 100 S7        29.95F
TYNDALL AFB    CLOUDY    63  62  95 SE12      29.95F
TYND DRONE APT MOCLDY    63  61  94 S10       29.94F
DE FUNIAK SPR  CLOUDY    61  61  99 S7        29.93F
EGLIN AFB      MOCLDY    64  62  95 S8        29.92S
DESTIN         CLOUDY    65  63  93 S7        29.92F
HURLBURT       PTCLDY    64  60  90 S9        29.91S
CRESTVIEW      CLOUDY    63  32  31 S5        29.94S
PENSACOLA      PTCLDY    63  62  97 S6        29.91S
$$

!ALZ063-066-020200
...South Alabama...

CITY           SKY/WX    TMP DP  RH WIND       PRES   REMARKS
DOTHAN         LGT RAIN  59  58  96 S13       29.97S
OZARK CAIRNS   DRIZZLE   61  59  94 SE8       29.92F
FT RUCKER HELI CLOUDY    61  59  93 S5        29.92F
RUCKER HELI 3  LGT RAIN  61  59  94 S9        29.94F
RUCKER HELI 2  LGT RAIN  59  59 100 S6        29.94R
FLORALA APT    CLOUDY    63  61  93 S6        29.93F
ANDALUSIA      CLOUDY    66  61  84 S6        29.90F
TROY           CLOUDY    61  59  93 S10       29.90F
EUFALA         CLOUDY    57  55  94 S12       29.92F
MOBILE         CLOUDY    62  62 100 S7        29.90S
$$

!GAZ120>161-020200
...Southwest and South Central Georgia...

CITY           SKY/WX    TMP DP  RH WIND       PRES   REMARKS
THOMASVILLE    DRIZZLE   63  54  72 S10G18    30.01F
BAINBRIDGE     LGT RAIN  61  59  94 S12G17    29.98S
MOODY AFB      LGT RAIN  61  51  70 S6        30.02S
VALDOSTA       LGT RAIN  59  54  83 S5        30.02F
MOULTRIE       LGT RAIN  63  52  67 S9        30.00F
BLAKELY        DRIZZLE   59  59 100 S8        29.96S
ALBANY         LGT RAIN  60  53  77 S10       29.99F
TIFTON         LGT RAIN  59  50  72 S6        29.99F
FITZGERALD     CLOUDY    61  51  69 S6        30.00F
CORDELE        LGT RAIN  62  52  69 S8        29.98F
AMERICUS       RAIN      55  54  94 S12G21    29.98R
HOMERVILLE     LGT RAIN  64  52  63 SW3       30.02F
$$

!GMZ750-755-770-775-020200
...Coastal and Buoy Obs...

STATION/POSITION TIME  TEMP    WIND        PRES    VSBY  WAVE
                       AIR SEA DIR/SP/G                  HT/PER
                 (UTC) (F)     (DEG/KT/KT) (MB)    (MI)  (FT/S)
KEATON BEACH     0100   62     160/ 11/ 13 1017.0F
CEDAR KEY        0100   63     210/ 13/ 16 1017.9R
C TOWER          0100   66     170/ 22/ 23 1015.1R
APALACHICOLA BUO 0100   69 67  170/ 17/ 19 1016.3S         7/ 8
PANAMA CITY BUOY 0006   69 69  200/ 17/ 21 1014.7R         8/ 8
MOBILE BUOY      0043   70 69  250/ 10/ 14 1013.7R         6/ 8
ORANGE BCH AL BU 0100   65 62  200/  8/ 10 1012.2R         6/ 8
$$



USA.gov is the U.S. government's official web portal to all federal, state and local government web resources and services.